Tracking 34717 objects as of 14-Jul-2026
HD Live streaming from Space Station
objects crossing your sky now

USA 421

Track USA 421 now!
10-day predictions


NORAD ID: 61644
Int'l Code: 2024-192A
Perigee: 582.8 km
Apogee: 585.6 km
Inclination: 70.0 °
Period: 96.2 minutes
Semi major axis: 6955 km
RCS: Unknown
Launch date: October 24, 2024
Source: United States (US)
Launch site: AIR FORCE WESTERN TEST RANGE (AFWTR)
Your satellite tracking list
Your tracking list is empty




NASA's NSSDC Master Catalog

Two Line Element Set (TLE):
1 61644U 24192A   26183.92145046 0.00000000  00000-0  00000-0 0    03
2 61644  70.0160 227.5675 0002000 300.6933  59.3067 14.96713314    06
Source of the keplerian elements: McCants